| time (UTC) | temp F | wind direction | speed MPH | gust MPH | rain 1hr in | rain 24hr in | rain mn in | humidity % | barometer mb |
| 20260505210519 | 80 | 43 | 11.0 | 16.0 | 0.00 | 0.00 | 0.00 | 36 | 1014.8 |
| 20260505205523 | 79 | 39 | 13.0 | 16.0 | 0.00 | 0.00 | 0.00 | 37 | 1014.8 |
| 20260505204527 | 79 | 34 | 10.0 | 15.0 | 0.00 | 0.00 | 0.00 | 36 | 1014.9 |
| 20260505203532 | 78 | 17 | 11.0 | 20.0 | 0.00 | 0.00 | 0.00 | 36 | 1014.9 |
| 20260505202518 | 78 | 21 | 12.0 | 16.0 | 0.00 | 0.00 | 0.00 | 38 | 1015.0 |
| 20260505201523 | 78 | 38 | 11.0 | 15.0 | 0.00 | 0.00 | 0.00 | 39 | 1015.0 |
| 20260505200526 | 77 | 38 | 12.0 | 19.0 | 0.00 | 0.00 | 0.00 | 38 | 1015.1 |
| 20260505195530 | 77 | 46 | 12.0 | 13.0 | 0.00 | 0.00 | 0.00 | 39 | 1015.0 |
| 20260505194517 | 77 | 42 | 13.0 | 17.0 | 0.00 | 0.00 | 0.00 | 39 | 1015.0 |
| 20260505193521 | 76 | 38 | 13.0 | 16.0 | 0.00 | 0.00 | 0.00 | 41 | 1015.0 |
| 20260505192605 | 74 | 38 | 14.0 | 17.0 | 0.00 | 0.00 | 0.00 | 41 | 1015.0 |
| 20260505191530 | 75 | 43 | 12.0 | 19.0 | 0.00 | 0.00 | 0.00 | 42 | 1015.0 |
| 20260505190516 | 75 | 42 | 14.0 | 18.0 | 0.00 | 0.00 | 0.00 | 41 | 1015.1 |
| 20260505185601 | 75 | 45 | 10.0 | 12.0 | 0.00 | 0.00 | 0.00 | 43 | 1015.1 |
| 20260505184525 | 73 | 43 | 14.0 | 18.0 | 0.00 | 0.00 | 0.00 | 43 | 1015.2 |
| 20260505183529 | 74 | 39 | 10.0 | 15.0 | 0.00 | 0.00 | 0.00 | 43 | 1015.2 |
| 20260505182516 | 73 | 39 | 15.0 | 17.0 | 0.00 | 0.00 | 0.00 | 43 | 1015.1 |
| 20260505181520 | 72 | 38 | 14.0 | 18.0 | 0.00 | 0.00 | 0.00 | 44 | 1015.1 |
| 20260505180525 | 72 | 30 | 11.0 | 16.0 | 0.00 | 0.00 | 0.00 | 46 | 1015.0 |
| 20260505175528 | 69 | 35 | 15.0 | 20.0 | 0.00 | 0.00 | 0.00 | 47 | 1014.9 |
| 20260505174527 | 68 | 39 | 18.0 | 22.0 | 0.00 | 0.00 | 0.00 | 49 | 1014.9 |
| 20260505173519 | 67 | 44 | 15.0 | 18.0 | 0.00 | 0.00 | 0.00 | 49 | 1014.9 |
| 20260505172524 | 67 | 46 | 14.0 | 17.0 | 0.00 | 0.00 | 0.00 | 50 | 1014.8 |
| 20260505171522 | 67 | 43 | 13.0 | 16.0 | 0.00 | 0.00 | 0.00 | 50 | 1014.9 |
| 20260505170520 | 69 | 32 | 10.0 | 13.0 | 0.00 | 0.00 | 0.00 | 49 | 1014.9 |
| 20260505165519 | 68 | 53 | 9.0 | 13.0 | 0.00 | 0.00 | 0.00 | 50 | 1014.9 |
| 20260505164517 | 68 | 39 | 10.0 | 13.0 | 0.00 | 0.00 | 0.00 | 50 | 1014.9 |
| 20260505163515 | 66 | 44 | 10.0 | 12.0 | 0.00 | 0.00 | 0.00 | 53 | 1014.9 |
| 20260505162531 | 66 | 39 | 11.0 | 14.0 | 0.00 | 0.00 | 0.00 | 52 | 1014.8 |
| 20260505161517 | 64 | 39 | 9.0 | 13.0 | 0.00 | 0.00 | 0.00 | 56 | 1014.8 |
| 20260505160542 | 63 | 39 | 8.0 | 11.0 | 0.00 | 0.00 | 0.00 | 57 | 1014.6 |
| 20260505152521 | 62 | 44 | 8.0 | 10.0 | 0.00 | 0.00 | 0.00 | 59 | 1014.2 |
| 20260505151526 | 62 | 40 | 8.0 | 10.0 | 0.00 | 0.00 | 0.00 | 57 | 1014.2 |
| 20260505150530 | 61 | 197 | 4.0 | 6.0 | 0.00 | 0.00 | 0.00 | 59 | 1013.8 |
| 20260505140540 | 61 | 34 | 11.0 | 16.0 | 0.00 | 0.00 | 0.00 | 59 | 1012.8 |
| 20260505124518 | 59 | 35 | 12.0 | 16.0 | 0.00 | 0.00 | 0.00 | 62 | 1012.3 |
| 20260505123522 | 58 | 42 | 13.0 | 14.0 | 0.00 | 0.00 | 0.00 | 66 | 1012.3 |
| 20260505122526 | 58 | 39 | 5.0 | 8.0 | 0.00 | 0.00 | 0.00 | 66 | 1012.3 |
| 20260505121531 | 58 | 40 | 10.0 | 12.0 | 0.00 | 0.00 | 0.00 | 67 | 1012.1 |
| 20260505120517 | 57 | 35 | 8.0 | 8.0 | 0.00 | 0.00 | 0.00 | 70 | 1012.0 |
| 20260505115521 | 58 | 51 | 5.0 | 6.0 | 0.00 | 0.00 | 0.00 | 67 | 1012.0 |
| 20260505114526 | 60 | 39 | 4.0 | 5.0 | 0.00 | 0.00 | 0.00 | 60 | 1011.9 |
| 20260505113544 | 61 | 0.0 | 0.0 | 0.00 | 0.00 | 0.00 | 57 | 1011.9 | |
| 20260505112557 | 61 | 0.0 | 0.0 | 0.00 | 0.00 | 0.00 | 57 | 1011.8 | |
| 20260505111540 | 61 | 0.0 | 0.0 | 0.00 | 0.00 | 0.00 | 56 | 1011.8 | |
| 20260505110519 | 61 | 0.0 | 0.0 | 0.00 | 0.00 | 0.00 | 56 | 1011.5 | |
| 20260505101529 | 64 | 226 | 4.0 | 6.0 | 0.00 | 0.00 | 0.00 | 51 | 1011.2 |
| 20260505100533 | 64 | 206 | 4.0 | 6.0 | 0.00 | 0.00 | 0.00 | 52 | 1011.0 |
| 20260505095519 | 65 | 302 | 5.0 | 7.0 | 0.00 | 0.00 | 0.00 | 51 | 1010.9 |
| 20260505094524 | 60 | 298 | 5.0 | 7.0 | 0.00 | 0.00 | 0.00 | 60 | 1010.8 |
| 20260505093528 | 62 | 349 | 4.0 | 7.0 | 0.00 | 0.00 | 0.00 | 56 | 1010.7 |
| 20260505092532 | 63 | 311 | 6.0 | 7.0 | 0.00 | 0.00 | 0.00 | 55 | 1010.7 |
| 20260505091519 | 62 | 290 | 6.0 | 6.0 | 0.00 | 0.00 | 0.00 | 57 | 1010.7 |
| 20260505090543 | 65 | 337 | 5.0 | 6.0 | 0.00 | 0.00 | 0.00 | 52 | 1010.7 |
| 20260505085527 | 65 | 299 | 8.0 | 10.0 | 0.00 | 0.00 | 0.00 | 51 | 1010.7 |
| 20260505084532 | 65 | 346 | 5.0 | 7.0 | 0.00 | 0.00 | 0.00 | 51 | 1010.7 |
| 20260505083518 | 64 | 292 | 9.0 | 10.0 | 0.00 | 0.00 | 0.00 | 51 | 1010.7 |
| 20260505082522 | 66 | 276 | 8.0 | 11.0 | 0.00 | 0.00 | 0.00 | 49 | 1010.6 |
| 20260505081526 | 67 | 272 | 9.0 | 10.0 | 0.00 | 0.00 | 0.00 | 47 | 1010.6 |
| 20260505080612 | 68 | 278 | 11.0 | 14.0 | 0.00 | 0.00 | 0.00 | 46 | 1010.8 |
| 20260505075518 | 67 | 279 | 10.0 | 12.0 | 0.00 | 0.00 | 0.00 | 48 | 1010.6 |
| 20260505074522 | 67 | 24 | 4.0 | 6.0 | 0.00 | 0.00 | 0.00 | 47 | 1010.5 |
| 20260505073526 | 67 | 287 | 4.0 | 8.0 | 0.00 | 0.00 | 0.00 | 47 | 1010.4 |
| 20260505072531 | 67 | 0.0 | 0.0 | 0.00 | 0.00 | 0.00 | 48 | 1010.3 | |
| 20260505071557 | 67 | 240 | 2.0 | 4.0 | 0.00 | 0.00 | 0.00 | 50 | 1010.2 |
| 20260505070521 | 67 | 270 | 5.0 | 5.0 | 0.00 | 0.00 | 0.00 | 50 | 1010.1 |
| 20260505065525 | 68 | 282 | 6.0 | 9.0 | 0.00 | 0.00 | 0.00 | 47 | 1010.1 |
| 20260505064530 | 68 | 2 | 5.0 | 7.0 | 0.00 | 0.00 | 0.00 | 44 | 1010.0 |
| 20260505063516 | 67 | 0.0 | 0.0 | 0.00 | 0.00 | 0.00 | 43 | 1009.9 | |
| 20260505062520 | 67 | 0.0 | 0.0 | 0.00 | 0.00 | 0.00 | 45 | 1009.9 | |
| 20260505061524 | 68 | 0.0 | 0.0 | 0.00 | 0.00 | 0.00 | 44 | 1009.9 | |
| 20260505060529 | 67 | 37 | 3.0 | 6.0 | 0.00 | 0.00 | 0.00 | 43 | 1009.9 |
| 20260505055515 | 66 | 34 | 1.0 | 4.0 | 0.00 | 0.00 | 0.00 | 47 | 1009.9 |
| 20260505054520 | 69 | 321 | 5.0 | 6.0 | 0.00 | 0.00 | 0.00 | 40 | 1009.9 |
| 20260505053705 | 71 | 318 | 5.0 | 6.0 | 0.00 | 0.00 | 0.00 | 36 | 1009.9 |
| 20260505052522 | 64 | 40 | 2.0 | 5.0 | 0.00 | 0.00 | 0.00 | 48 | 1009.7 |
| 20260505051520 | 65 | 40 | 4.0 | 4.0 | 0.00 | 0.00 | 0.00 | 49 | 1009.7 |
| 20260505050519 | 65 | 45 | 2.0 | 6.0 | 0.00 | 0.00 | 0.00 | 49 | 1009.9 |
| 20260505041522 | 66 | 0.0 | 0.0 | 0.00 | 0.00 | 0.00 | 45 | 1009.7 | |
| 20260505040526 | 67 | 0.0 | 0.0 | 0.00 | 0.00 | 0.00 | 50 | 1009.4 | |
| 20260505035531 | 68 | 0.0 | 0.0 | 0.00 | 0.00 | 0.00 | 51 | 1009.4 | |
| 20260505034517 | 69 | 0.0 | 0.0 | 0.00 | 0.00 | 0.00 | 48 | 1009.4 | |
| 20260505033521 | 69 | 0.0 | 0.0 | 0.00 | 0.00 | 0.00 | 45 | 1009.3 | |
| 20260505032525 | 70 | 0.0 | 0.0 | 0.00 | 0.00 | 0.00 | 40 | 1009.3 | |
| 20260505031530 | 72 | 0.0 | 0.0 | 0.00 | 0.00 | 0.00 | 41 | 1009.1 | |
| 20260505030516 | 76 | 0.0 | 0.0 | 0.00 | 0.00 | 0.00 | 33 | 1008.9 | |
| 20260505025520 | 77 | 0.0 | 0.0 | 0.00 | 0.00 | 0.00 | 33 | 1008.9 | |
| 20260505024545 | 78 | 0.0 | 0.0 | 0.00 | 0.00 | 0.00 | 32 | 1008.9 | |
| 20260505023529 | 80 | 0.0 | 0.0 | 0.00 | 0.00 | 0.00 | 31 | 1008.9 | |
| 20260505022515 | 81 | 0.0 | 0.0 | 0.00 | 0.00 | 0.00 | 29 | 1009.0 | |
| 20260505021519 | 82 | 0.0 | 0.0 | 0.00 | 0.00 | 0.00 | 29 | 1009.0 | |
| 20260505020524 | 83 | 0.0 | 0.0 | 0.00 | 0.00 | 0.00 | 28 | 1009.0 | |
| 20260505015549 | 84 | 96 | 1.0 | 5.0 | 0.00 | 0.00 | 0.00 | 27 | 1009.1 |
| 20260505014533 | 83 | 112 | 4.0 | 7.0 | 0.00 | 0.00 | 0.00 | 28 | 1009.1 |
| 20260505013519 | 84 | 62 | 6.0 | 8.0 | 0.00 | 0.00 | 0.00 | 27 | 1009.1 |
| 20260505012544 | 85 | 68 | 6.0 | 7.0 | 0.00 | 0.00 | 0.00 | 27 | 1009.2 |
| 20260505011528 | 85 | 45 | 2.0 | 5.0 | 0.00 | 0.00 | 0.00 | 27 | 1009.3 |
| 20260505010537 | 86 | 20 | 5.0 | 9.0 | 0.00 | 0.00 | 0.00 | 25 | 1009.4 |
| 20260505005518 | 85 | 60 | 5.0 | 6.0 | 0.00 | 0.00 | 0.00 | 27 | 1009.3 |
| 20260505004523 | 85 | 36 | 7.0 | 9.0 | 0.00 | 0.00 | 0.00 | 26 | 1009.4 |
| 20260505003527 | 85 | 46 | 8.0 | 9.0 | 0.00 | 0.00 | 0.00 | 27 | 1009.4 |
| 20260505002551 | 85 | 33 | 8.0 | 13.0 | 0.00 | 0.00 | 0.00 | 26 | 1009.4 |
| 20260505001518 | 83 | 315 | 10.0 | 17.0 | 0.00 | 0.00 | 0.00 | 28 | 1009.4 |
| 20260505000522 | 84 | 325 | 8.0 | 12.0 | 0.00 | 0.00 | 0.00 | 28 | 1009.4 |
| 20260504235526 | 84 | 295 | 3.0 | 8.0 | 0.00 | 0.00 | 0.00 | 26 | 1009.5 |
| 20260504234525 | 84 | 303 | 11.0 | 13.0 | 0.00 | 0.00 | 0.00 | 28 | 1009.5 |
| 20260504233517 | 86 | 38 | 6.0 | 11.0 | 0.00 | 0.00 | 0.00 | 24 | 1009.5 |
| 20260504232521 | 87 | 321 | 3.0 | 10.0 | 0.00 | 0.00 | 0.00 | 25 | 1009.5 |
| 20260504231520 | 85 | 301 | 4.0 | 6.0 | 0.00 | 0.00 | 0.00 | 28 | 1009.7 |
| 20260504230538 | 84 | 304 | 4.0 | 7.0 | 0.00 | 0.00 | 0.00 | 27 | 1009.7 |
| 20260504225516 | 84 | 302 | 8.0 | 11.0 | 0.00 | 0.00 | 0.00 | 27 | 1009.8 |
| 20260504224520 | 84 | 300 | 9.0 | 13.0 | 0.00 | 0.00 | 0.00 | 26 | 1009.9 |
| 20260504223525 | 84 | 292 | 13.0 | 21.0 | 0.00 | 0.00 | 0.00 | 29 | 1009.9 |
| 20260504222529 | 85 | 294 | 3.0 | 10.0 | 0.00 | 0.00 | 0.00 | 25 | 1010.1 |
| 20260504221516 | 88 | 98 | 1.0 | 7.0 | 0.00 | 0.00 | 0.00 | 24 | 1010.3 |
| 20260504220540 | 87 | 15 | 5.0 | 9.0 | 0.00 | 0.00 | 0.00 | 26 | 1010.4 |
| 20260504215524 | 86 | 0.0 | 0.0 | 0.00 | 0.00 | 0.00 | 26 | 1010.6 | |
| 20260504214528 | 86 | 51 | 3.0 | 8.0 | 0.00 | 0.00 | 0.00 | 26 | 1010.7 |
| 20260504213533 | 85 | 40 | 5.0 | 8.0 | 0.00 | 0.00 | 0.00 | 27 | 1010.8 |
| 20260504212518 | 85 | 248 | 1.0 | 5.0 | 0.00 | 0.00 | 0.00 | 27 | 1010.9 |
| 20260504211543 | 85 | 40 | 5.0 | 10.0 | 0.00 | 0.00 | 0.00 | 26 | 1011.0 |